{"data":{"norad_id":63591,"intl_designator":"2025-076Y","name":"STARLINK-33702","alt_names":[],"object_type":"PAYLOAD","status":"ACTIVE","operator":null,"country":"US","launch_date":"2025-04-14","launch_site_code":"AFETR","launch_vehicle":null,"mission":null,"orbit_class":"UNKNOWN","rcs_meters":null,"size_class":null,"mass_kg":null,"dimensions":null,"purposes":["comms"],"wikipedia_slug":null,"has_3d_model":false,"image_url":null,"decayed_at":null,"tle_current":{"epoch":"2026-05-24T23:57:52.478784Z","epoch_age_seconds":71236,"freshness":"FRESH","line1":"1 63591U 25076Y   26144.99852406  .00016547  00000+0  60932-3 0  9999","line2":"2 63591  42.9950 250.4947 0001157 285.7211  74.3513 15.27588204 63505","mean_motion":15.27588204,"eccentricity":0.0001157,"inclination_deg":42.995,"raan_deg":250.4947,"arg_perigee_deg":285.7211,"mean_anomaly_deg":74.3513,"bstar":0.00060932,"rev_number":6350,"period_min":94.266242448675,"perigee_km":482.23069403315,"apogee_km":483.81836681129,"semimajor_km":6861.1615304222,"source":"CELESTRAK","updated_at":"2026-05-25T13:38:20.050550Z"}}}